STARLINK-35281, 65824

Orbit data source: Space-Track

STARLINK-35281, 65824 is a payload satellite owned by SpaceX/Seattle (US) in LEO that was launched on Mon, 29 Sep 2025 UTC via an FALCON 9 launch vehicle from the Air Force Western Test Range (AFWTR). Payload-class satellites include a variety of spacecraft equipped with specific instruments for various scientific and technological missions. These include communications satellites like Starlink; space stations such as the ISS; scientific satellites like the Hubble; Earth observation satellites from companies like Planet Labs, Umbra, and HawkEye 360; GPS; miniature CubeSats for education and research; and military/defense satellites.

Loading next visibility...
Identifier
65824, 2025-221B
Orbit
LEO
Country
Flag of USUS
Related business
Manufacturer
SpaceX/Seattle
Mission
Operational spacecraft
Bus & Motor
STARLINK V2MO, Unknown motor
Mass
575 kg wet, ~530 kg dry
Launch date (UTC)
2025-09-29 (3 weeks ago)
Launch vehicle
FALCON 9
Launch site
Air Force Western Test Range (AFWTR)
Object type
Payload
Rocket body
Debris
Shape & HBR
Unknown shape, 17.7 m
Radar Cross Section
RCS unknown

Expand to show TLE details & history
Last TLE update: 7 hours ago

TLE from 7 hours ago
0 STARLINK-35281
1 65824U 25221B   25290.83335647 -.01694469  00000-0 -25881-1 0  9990
2 65824  53.1597  34.6825 0001001  62.4876 251.1888 15.56851518  4215
Epoch: 2025-10-17T20:00Z
TLE epoch observation values (Epoch: 2025-10-17T20:00:01.999Z)
Latitude
-35.58609°
Longitude
35.88564°
Altitude
408.353 km
Speed
7.665 km/s
True Right ascension
00h 09m 52s
True Declination
-35° 24' 54"
Sunlit
Object was in full shadow at epoch
Visualization orbit readout
Latitude
Unknown
Longitude
Unknown
Altitude
Unknown
Speed
Unknown
Apparent Right ascension
Unknown
Apparent Declination
Unknown
Sunlit
N/A
Visualization observer readout
Local Sidereal Time
21:28:13
Azimuth
Unknown
Elevation
Unknown
Doppler factor
Unknown
Orbital elements
Apogee altitude
397.713 km
Perigee altitude
396.357 km
Semi-major axis
6,775.172 km
Eccentricity
0.0001
Inclination
53.1597°
RAAN
34.6825°
Arg. of periapsis
62.4876°
True anomaly
251.17794°
Mean anomaly
251.1888°
Eccentric anomaly
251.18337°
Mean motion
3.89191 °/min
Orbital period
92.5 mins
BSTAR
-0.025881
Loading maneuver chart data...
Computing Atmospheric mass density...
Loading historical data...
Loading historical data...
Loading historical data...
Loading historical data...
Loading historical data...
Loading historical data...
Loading historical data...

Documentation

Showing up to 5 results
|